Vorticity
10 6 9 5 3 4 10 10 3 6 7 12 3 11 5 10 8 5 6 3 3 7 7 7 5 4 5 4 4 3 3 4 5 8 8 5 7 8 9 9 7 6 7
4 8 7 7 5 2 10 10 7 5 6 5 9 8 6 8 10 11 8 1 4 6 9 3 5 5 4 4 4 4 5 7 7 6 4 8 9 10 10 8 10 7 6
6 5 8 9 7 3 13 6 9 6 6 4 14 5 9 6 8 9 8 -0 2 5 4 4 5 5 4 3 4 6 7 6 5 7 6 8 5 6 8 8 6 6 6
6 4 3 11 11 4 10 7 9 6 7 6 10 6 7 7 5 11 9 0 0 5 3 3 4 4 3 5 7 7 5 6 6 6 6 7 11 6 7 6 7 9 7
2 2 6 4 10 8 7 7 13 5 4 7 11 9 8 8 8 13 15 7 3 5 4 4 4 3 6 8 7 5 6 6 5 6 8 9 7 8 8 8 6 3 9
15 4 6 7 7 8 10 7 10 8 3 10 9 6 10 7 9 11 12 8 6 4 4 5 4 6 8 7 5 6 6 5 8 8 7 6 6 6 9 6 6 7 8
12 16 10 8 9 8 13 5 10 10 6 9 9 6 8 9 8 7 7 5 4 6 6 5 7 9 6 5 5 5 6 8 8 7 6 8 7 7 5 9 9 8 8
14 9 16 11 11 7 12 5 8 9 5 9 10 7 7 9 9 10 11 10 7 5 6 9 8 6 5 5 5 6 7 7 7 6 10 8 5 7 7 9 9 6 6
5 13 12 12 12 9 5 5 6 8 5 8 8 8 7 7 7 9 9 8 6 8 8 7 6 5 5 5 6 7 8 8 8 11 6 6 5 9 11 10 8 11 13
43 4 14 11 10 12 5 4 4 8 7 7 8 9 7 6 5 6 5 7 8 6 6 6 4 4 5 7 8 8 7 11 7 6 3 6 9 11 8 7 7 6 6
51 16 16 11 11 13 6 5 4 6 9 7 12 7 4 4 4 5 8 6 6 6 5 4 5 5 7 9 6 7 9 7 4 5 4 12 10 8 7 6 4 3 1
54 27 15 14 15 9 4 3 3 7 8 12 6 3 3 4 6 7 7 7 6 5 4 5 5 8 9 5 8 7 7 1 5 4 13 10 8 6 3 1 -1 0 0
27 16 16 14 14 5 4 5 6 7 5 5 5 4 7 5 8 7 7 6 4 5 4 6 9 8 5 8 5 4 1 5 7 12 9 8 5 5 -0 1 1 5 2
17 16 19 6 6 6 6 5 6 10 7 3 7 8 5 8 8 7 5 5 5 4 7 8 7 7 6 7 5 3 5 8 12 10 9 5 4 2 0 3 1 3 4
12 16 11 4 4 7 7 6 7 9 6 7 8 6 8 8 6 6 4 5 5 8 8 6 6 6 7 6 4 6 8 12 9 8 4 3 1 0 1 1 5 12 24
8 9 13 11 9 7 4 7 10 8 7 6 8 8 8 7 4 5 7 6 9 6 6 6 7 6 7 5 6 9 12 9 7 3 3 0 0 3 -5 2 14 37 38
5 8 10 10 10 11 11 10 9 7 7 8 10 7 4 4 7 7 6 9 7 4 3 10 7 6 6 6 10 14 9 5 3 5 2 1 5 -7 1 15 38 32 29
11 15 11 12 12 12 12 11 11 12 11 6 3 4 6 7 6 8 7 6 4 8 10 6 6 4 9 10 12 7 3 4 2 1 3 3 2 1 17 35 36 34 32
14 11 12 12 11 11 12 12 8 4 4 4 5 7 6 8 7 6 7 8 10 6 7 5 5 12 13 9 7 4 4 1 2 3 2 1 3 21 35 33 36 37 24
11 11 12 11 9 5 4 4 3 4 6 7 8 9 8 5 7 8 9 8 8 5 7 7 7 15 9 7 5 4 2 4 3 -0 1 5 26 39 30 36 39 23 8
4 4 4 6 5 4 5 6 7 8 8 10 6 5 7 8 8 8 7 5 6 7 10 5 13 8 7 5 4 1 4 5 0 2 2 30 37 31 38 36 17 8 15
5 2 2 5 8 5 5 7 10 11 7 6 8 8 8 8 6 6 7 8 9 10 7 10 9 7 3 3 1 4 5 0 4 5 28 38 30 37 33 12 12 14 9
12 12 9 8 7 12 14 10 6 8 8 8 8 7 6 6 6 8 9 9 7 8 10 10 6 4 2 1 3 4 -0 3 8 29 38 31 35 28 11 13 10 16 14
8 10 13 16 12 6 8 8 8 7 7 6 6 8 8 6 12 10 6 8 7 11 10 5 4 2 2 3 3 1 1 8 23 40 32 39 23 12 11 13 16 10 7
10 10 6 7 10 9 8 8 7 7 7 6 8 9 11 9 6 7 10 7 13 8 5 4 3 3 4 3 2 3 5 16 44 36 47 20 13 12 16 10 6 8 8
8 12 10 9 9 9 7 6 6 5 7 10 11 8 8 5 8 9 8 15 7 5 3 3 4 3 1 3 2 4 22 37 36 49 26 13 14 15 8 9 7 9 11
Height
5735 5738 5740 5742 5743 5749 5754 5756 5758 5761 5762 5764 5765 5766 5766 5767 5768 5768 5769 5771 5770 5771 5771 5772 5771 5770 5768 5766 5763 5762 5758 5756 5754 5751 5746 5743 5739 5735 5730 5726 5722 5717 5713
5723 5727 5731 5733 5735 5738 5744 5747 5749 5752 5753 5755 5758 5760 5760 5760 5761 5762 5763 5763 5763 5764 5764 5764 5763 5762 5760 5757 5755 5752 5749 5747 5744 5740 5737 5733 5729 5724 5719 5714 5710 5705 5700
5713 5716 5720 5724 5726 5729 5735 5738 5740 5743 5745 5747 5750 5753 5754 5753 5755 5756 5756 5757 5758 5757 5757 5756 5755 5754 5751 5749 5746 5743 5739 5737 5733 5729 5726 5723 5720 5716 5711 5704 5698 5692 5686
5700 5705 5710 5714 5717 5721 5727 5730 5733 5736 5739 5740 5742 5745 5746 5746 5747 5748 5749 5750 5750 5750 5749 5748 5747 5745 5742 5740 5737 5733 5729 5725 5721 5717 5713 5709 5704 5701 5701 5697 5689 5683 5676
5683 5689 5696 5702 5706 5712 5718 5721 5725 5729 5732 5734 5735 5738 5738 5739 5739 5740 5742 5742 5743 5742 5741 5740 5738 5736 5733 5730 5726 5722 5718 5714 5709 5705 5700 5694 5689 5684 5681 5680 5676 5670 5662
5666 5672 5678 5685 5691 5700 5707 5712 5717 5721 5725 5727 5728 5730 5732 5731 5732 5733 5734 5735 5735 5734 5733 5731 5729 5727 5723 5719 5715 5711 5707 5702 5697 5692 5687 5681 5676 5671 5665 5661 5656 5652 5647
5652 5661 5668 5674 5679 5689 5699 5704 5708 5713 5717 5720 5721 5723 5725 5725 5725 5726 5727 5728 5727 5726 5724 5723 5720 5717 5713 5709 5705 5700 5695 5690 5685 5679 5673 5667 5661 5655 5649 5643 5638 5633 5627
5633 5645 5655 5662 5669 5679 5689 5694 5699 5705 5709 5712 5713 5715 5718 5719 5719 5720 5720 5720 5719 5718 5716 5714 5712 5708 5703 5699 5694 5689 5684 5678 5672 5666 5660 5653 5646 5639 5631 5624 5618 5616 5611
5615 5625 5639 5649 5660 5670 5679 5685 5691 5697 5701 5705 5706 5709 5711 5712 5712 5713 5713 5712 5711 5709 5707 5705 5702 5698 5693 5689 5683 5678 5672 5666 5660 5653 5646 5639 5631 5622 5613 5605 5597 5590 5588
5595 5610 5626 5638 5649 5661 5670 5676 5683 5689 5693 5697 5699 5702 5704 5705 5706 5705 5705 5704 5703 5701 5699 5696 5692 5688 5683 5678 5672 5666 5660 5653 5647 5640 5632 5623 5615 5605 5596 5588 5579 5569 5560
5580 5592 5610 5626 5641 5653 5662 5669 5676 5682 5687 5690 5692 5695 5697 5698 5698 5698 5697 5696 5694 5692 5690 5686 5682 5678 5673 5667 5661 5654 5648 5641 5633 5625 5616 5607 5598 5589 5580 5570 5559 5548 5535
5569 5582 5601 5618 5635 5646 5655 5663 5670 5676 5681 5684 5686 5689 5690 5691 5691 5690 5689 5688 5686 5684 5680 5676 5672 5667 5662 5656 5649 5642 5635 5628 5619 5610 5601 5592 5583 5574 5563 5553 5542 5528 5511
5567 5580 5598 5615 5629 5640 5650 5657 5664 5670 5674 5678 5680 5682 5684 5684 5684 5683 5682 5680 5678 5675 5671 5667 5662 5656 5651 5644 5637 5630 5622 5614 5605 5596 5587 5578 5568 5558 5547 5534 5521 5506 5488
5569 5583 5600 5614 5627 5637 5645 5652 5659 5665 5668 5671 5674 5676 5677 5677 5676 5675 5674 5672 5669 5665 5661 5656 5651 5645 5639 5632 5625 5618 5609 5600 5590 5581 5572 5561 5551 5539 5527 5513 5497 5480 5462
5579 5591 5605 5616 5626 5634 5641 5648 5654 5659 5662 5665 5668 5670 5670 5669 5669 5667 5666 5663 5659 5655 5651 5646 5640 5634 5627 5620 5613 5605 5596 5587 5577 5567 5556 5545 5533 5520 5504 5487 5470 5450 5431
5588 5599 5608 5617 5625 5633 5639 5645 5650 5654 5657 5660 5662 5663 5663 5662 5661 5659 5657 5654 5650 5645 5640 5635 5629 5622 5615 5608 5600 5591 5583 5573 5562 5553 5541 5528 5514 5500 5483 5463 5442 5420 5402
5594 5603 5610 5617 5624 5630 5636 5642 5646 5650 5652 5655 5656 5656 5656 5655 5653 5651 5648 5645 5640 5635 5630 5624 5618 5611 5604 5595 5587 5578 5568 5559 5548 5537 5524 5510 5494 5477 5461 5443 5421 5403 5386
5599 5605 5611 5618 5624 5629 5634 5639 5644 5647 5648 5650 5650 5649 5648 5647 5645 5642 5639 5635 5630 5626 5620 5614 5607 5599 5592 5583 5574 5566 5556 5545 5533 5519 5505 5490 5474 5454 5437 5420 5404 5387 5374
5601 5606 5612 5618 5623 5628 5633 5637 5640 5642 5643 5643 5643 5642 5641 5639 5637 5634 5630 5626 5621 5615 5609 5602 5595 5588 5579 5570 5562 5553 5543 5530 5517 5501 5484 5469 5453 5431 5411 5396 5386 5374 5365
5604 5609 5614 5618 5623 5627 5630 5633 5634 5635 5636 5636 5636 5636 5634 5632 5629 5625 5620 5616 5610 5604 5598 5591 5584 5576 5567 5558 5549 5538 5527 5515 5501 5483 5463 5445 5426 5407 5393 5382 5372 5365 5358
5607 5610 5614 5618 5621 5624 5626 5628 5630 5631 5631 5631 5630 5629 5626 5623 5619 5615 5611 5606 5600 5594 5587 5579 5571 5564 5555 5545 5534 5522 5509 5495 5481 5463 5444 5424 5405 5391 5380 5370 5363 5357 5351
5608 5610 5613 5616 5619 5621 5623 5624 5625 5626 5625 5625 5623 5620 5617 5614 5610 5605 5601 5595 5589 5583 5576 5568 5559 5550 5541 5531 5520 5507 5492 5477 5460 5442 5422 5405 5391 5380 5370 5363 5357 5350 5344
5607 5609 5612 5614 5615 5617 5619 5620 5620 5620 5619 5617 5615 5612 5608 5605 5600 5596 5591 5585 5579 5572 5565 5557 5549 5540 5529 5519 5507 5493 5477 5460 5442 5422 5403 5389 5378 5371 5364 5357 5350 5344 5337
5605 5607 5609 5610 5612 5614 5614 5614 5614 5613 5612 5609 5607 5603 5599 5595 5591 5586 5580 5574 5568 5561 5553 5546 5537 5528 5518 5506 5493 5479 5463 5445 5425 5406 5391 5379 5371 5365 5357 5350 5343 5337 5330
5603 5605 5606 5608 5609 5609 5609 5609 5608 5606 5605 5602 5598 5594 5591 5586 5581 5575 5569 5563 5556 5550 5543 5535 5526 5516 5504 5490 5475 5459 5441 5423 5407 5392 5380 5372 5365 5358 5351 5344 5338 5331 5323
5601 5603 5604 5605 5605 5605 5604 5603 5602 5600 5597 5593 5590 5586 5581 5577 5571 5565 5559 5553 5546 5538 5530 5521 5511 5499 5485 5472 5456 5439 5420 5405 5391 5380 5373 5367 5361 5355 5349 5341 5333 5325 5316